When you browse on this site, cookies collect data to enhance your experience and personalize the content and advertising you see.
Visit our Privacy Policy to learn more. By continuing to use the site, you agree to this use of cookies and data.
  • în România
  • Lista ţărilor
  • Pe 7 zile
  • Temperatura apei
  • Meteo pe hartă
  • Widget-uri
  • user-avatar
    Intrare

    Meteo pe oră la Kaposvar

    Astăzi, 11 Decembrie, Miercuri

    Timp Temperatura Precipitaţii Vânt Presiune Umiditate
    00:00 -1°C° 0 mm 4 m/s 752 mmHg 73%
    01:00 0°C° 0 mm 3 m/s 752 mmHg 76%
    02:00 0°C° 0 mm 3 m/s 752 mmHg 78%
    03:00 -1°C° 0 mm 2 m/s 752 mmHg 80%
    04:00 -1°C° 0 mm 2 m/s 751 mmHg 82%
    05:00 +1°C° 0 mm 1 m/s 751 mmHg 82%
    06:00 0°C° 0 mm 1 m/s 751 mmHg 83%
    07:00 0°C° 0 mm 1 m/s 751 mmHg 83%
    08:00 +1°C° 0 mm 1 m/s 751 mmHg 78%
    09:00 +1°C° 0 mm 0 m/s 750 mmHg 73%
    10:00 +2°C° 0 mm 0 m/s 750 mmHg 68%
    11:00 +3°C° 0 mm 0 m/s 750 mmHg 65%
    12:00 +4°C° 0 mm 1 m/s 749 mmHg 62%
    13:00 +5°C° 0 mm 1 m/s 748 mmHg 58%
    14:00 +4°C° 0 mm 1 m/s 748 mmHg 62%
    15:00 +3°C° 0 mm 1 m/s 747 mmHg 66%
    16:00 +3°C° 0 mm 1 m/s 746 mmHg 70%
    17:00 +2°C° 0 mm 1 m/s 746 mmHg 72%
    18:00 +2°C° 0 mm 1 m/s 746 mmHg 75%
    19:00 +2°C° 0 mm 1 m/s 746 mmHg 77%
    20:00 +1°C° 0 mm 1 m/s 745 mmHg 79%
    21:00 -1°C° 0 mm 2 m/s 744 mmHg 81%
    22:00 -1°C° 0 mm 2 m/s 744 mmHg 83%
    23:00 -1°C° 0 mm 2 m/s 743 mmHg 85%

    Mâine, 12 Decembrie, Joi

    Timp Temperatura Precipitaţii Vânt Presiune Umiditate
    00:00 +1°C° 0 mm 1 m/s 743 mmHg 87%
    01:00 +1°C° 0 mm 1 m/s 743 mmHg 88%
    02:00 +2°C° 0 mm 1 m/s 742 mmHg 89%
    03:00 +2°C° 0 mm 1 m/s 741 mmHg 90%
    04:00 +2°C° 0 mm 1 m/s 741 mmHg 91%
    05:00 +2°C° 0 mm 1 m/s 741 mmHg 92%
    06:00 +2°C° 0 mm 1 m/s 740 mmHg 94%
    07:00 +2°C° 0 mm 1 m/s 740 mmHg 96%
    08:00 +2°C° 0.1 mm 1 m/s 740 mmHg 96%
    09:00 +3°C° 0.1 mm 1 m/s 740 mmHg 95%
    10:00 +3°C° 0.1 mm 1 m/s 740 mmHg 95%
    11:00 +2°C° 0.2 mm 2 m/s 740 mmHg 95%
    12:00 +2°C° 0.2 mm 2 m/s 740 mmHg 94%
    13:00 +2°C° 0.2 mm 2 m/s 740 mmHg 94%
    14:00 +2°C° 0.1 mm 2 m/s 739 mmHg 94%
    15:00 +2°C° 0.1 mm 2 m/s 739 mmHg 95%
    16:00 +2°C° 0.1 mm 2 m/s 739 mmHg 95%
    17:00 +2°C° 0.1 mm 2 m/s 739 mmHg 95%
    18:00 +2°C° 0.1 mm 2 m/s 739 mmHg 95%
    19:00 +2°C° 0.1 mm 2 m/s 739 mmHg 95%
    20:00 +3°C° 0 mm 1 m/s 739 mmHg 95%
    21:00 +3°C° 0 mm 1 m/s 739 mmHg 96%
    22:00 +3°C° 0 mm 1 m/s 739 mmHg 96%
    23:00 +3°C° 0.1 mm 1 m/s 738 mmHg 96%

    Poimâine, 13 Decembrie, Vineri

    Timp Temperatura Precipitaţii Vânt Presiune Umiditate
    00:00 +3°C° 0.1 mm 1 m/s 738 mmHg 96%
    01:00 +3°C° 0.1 mm 1 m/s 738 mmHg 96%
    02:00 +2°C° 0 mm 1 m/s 737 mmHg 95%
    03:00 +1°C° 0 mm 2 m/s 736 mmHg 95%
    04:00 +1°C° 0 mm 2 m/s 736 mmHg 95%
    05:00 +1°C° 0 mm 2 m/s 735 mmHg 95%
    06:00 0°C° 0 mm 3 m/s 734 mmHg 94%
    07:00 0°C° 0 mm 3 m/s 734 mmHg 94%
    08:00 -1°C° 0 mm 4 m/s 733 mmHg 91%
    09:00 0°C° 0 mm 4 m/s 733 mmHg 88%
    10:00 +1°C° 0 mm 5 m/s 732 mmHg 85%
    11:00 +2°C° 0 mm 5 m/s 731 mmHg 79%
    12:00 +3°C° 0 mm 5 m/s 731 mmHg 73%
    13:00 +5°C° 0 mm 5 m/s 730 mmHg 67%
    14:00 +5°C° 0.1 mm 5 m/s 729 mmHg 68%
    15:00 +5°C° 0.1 mm 4 m/s 729 mmHg 70%
    16:00 +4°C° 0.1 mm 4 m/s 728 mmHg 71%
    17:00 +4°C° 0.6 mm 4 m/s 728 mmHg 76%
    18:00 +4°C° 0.6 mm 4 m/s 728 mmHg 80%
    19:00 +4°C° 0.6 mm 4 m/s 728 mmHg 85%
    20:00 +4°C° 1.7 mm 4 m/s 728 mmHg 87%
    21:00 +3°C° 1.7 mm 5 m/s 729 mmHg 89%
    22:00 +3°C° 1.7 mm 5 m/s 729 mmHg 92%
    23:00 +2°C° 3.5 mm 6 m/s 729 mmHg 93%

    14 Decembrie, Sâmbătă

    Timp Temperatura Precipitaţii Vânt Presiune Umiditate
    00:00 +2°C° 3.5 mm 7 m/s 730 mmHg 94%
    01:00 0°C° 3.5 mm 7 m/s 730 mmHg 95%
    02:00 0°C° 1.7 mm 7 m/s 731 mmHg 93%
    03:00 0°C° 1.7 mm 7 m/s 732 mmHg 91%
    04:00 +1°C° 1.7 mm 8 m/s 733 mmHg 89%
    05:00 +2°C° 0.3 mm 7 m/s 734 mmHg 85%
    06:00 +2°C° 0.3 mm 6 m/s 735 mmHg 82%
    07:00 +3°C° 0.3 mm 4 m/s 736 mmHg 78%
    08:00 +4°C° 0 mm 4 m/s 737 mmHg 76%
    09:00 +4°C° 0 mm 3 m/s 738 mmHg 74%
    10:00 +5°C° 0 mm 2 m/s 739 mmHg 72%
    11:00 +6°C° 0 mm 2 m/s 739 mmHg 72%
    12:00 +6°C° 0 mm 2 m/s 739 mmHg 73%
    13:00 +5°C° 0 mm 3 m/s 739 mmHg 73%
    14:00 +5°C° 0 mm 3 m/s 740 mmHg 76%
    15:00 +5°C° 0 mm 2 m/s 740 mmHg 80%
    16:00 +4°C° 0 mm 2 m/s 740 mmHg 84%
    17:00 +4°C° 0 mm 2 m/s 741 mmHg 85%
    18:00 +4°C° 0 mm 2 m/s 742 mmHg 86%
    19:00 +4°C° 0 mm 2 m/s 742 mmHg 87%
    20:00 +3°C° 0 mm 2 m/s 742 mmHg 87%
    21:00 +3°C° 0 mm 2 m/s 743 mmHg 86%
    22:00 +3°C° 0 mm 2 m/s 743 mmHg 85%
    23:00 +3°C° 0 mm 2 m/s 743 mmHg 85%

    15 Decembrie, Duminică

    Timp Temperatura Precipitaţii Vânt Presiune Umiditate
    00:00 +3°C° 0 mm 2 m/s 743 mmHg 85%
    01:00 +3°C° 0 mm 2 m/s 743 mmHg 84%
    02:00 +3°C° 0 mm 2 m/s 744 mmHg 85%
    03:00 +3°C° 0 mm 2 m/s 744 mmHg 85%
    04:00 +4°C° 0 mm 1 m/s 744 mmHg 86%
    05:00 +3°C° 0 mm 2 m/s 744 mmHg 85%
    06:00 +3°C° 0 mm 2 m/s 744 mmHg 85%
    07:00 +3°C° 0 mm 2 m/s 744 mmHg 84%
    08:00 +4°C° 0 mm 2 m/s 745 mmHg 80%
    09:00 +4°C° 0 mm 3 m/s 745 mmHg 76%
    10:00 +5°C° 0 mm 4 m/s 745 mmHg 71%
    11:00 +6°C° 0 mm 4 m/s 745 mmHg 68%
    12:00 +8°C° 0 mm 5 m/s 745 mmHg 65%
    13:00 +9°C° 0 mm 5 m/s 744 mmHg 62%
    14:00 +9°C° 0 mm 5 m/s 745 mmHg 66%
    15:00 +8°C° 0 mm 5 m/s 745 mmHg 71%
    16:00 +8°C° 0 mm 4 m/s 745 mmHg 75%
    17:00 +8°C° 0 mm 5 m/s 745 mmHg 75%
    18:00 +8°C° 0 mm 5 m/s 746 mmHg 75%
    19:00 +8°C° 0 mm 5 m/s 747 mmHg 75%
    20:00 +8°C° 0 mm 5 m/s 747 mmHg 77%
    21:00 +7°C° 0 mm 4 m/s 748 mmHg 79%
    22:00 +7°C° 0 mm 4 m/s 749 mmHg 81%
    23:00 +8°C° 0 mm 3 m/s 749 mmHg 83%

    16 Decembrie, Luni

    Timp Temperatura Precipitaţii Vânt Presiune Umiditate
    00:00 +7°C° 0 mm 3 m/s 749 mmHg 86%
    01:00 +7°C° 0 mm 3 m/s 749 mmHg 88%
    02:00 +7°C° 0 mm 2 m/s 750 mmHg 89%
    03:00 +7°C° 0 mm 2 m/s 750 mmHg 89%
    04:00 +7°C° 0 mm 1 m/s 750 mmHg 90%
    05:00 +6°C° 0 mm 2 m/s 750 mmHg 89%
    06:00 +7°C° 0 mm 2 m/s 750 mmHg 88%
    07:00 +7°C° 0 mm 2 m/s 750 mmHg 87%
    08:00 +7°C° 0 mm 2 m/s 751 mmHg 83%
    09:00 +8°C° 0 mm 2 m/s 751 mmHg 79%
    10:00 +9°C° 0 mm 3 m/s 751 mmHg 74%
    11:00 +10°C° 0 mm 3 m/s 751 mmHg 71%
    12:00 +11°C° 0 mm 3 m/s 751 mmHg 67%
    13:00 +12°C° 0 mm 4 m/s 750 mmHg 64%
    14:00 +11°C° 0 mm 4 m/s 750 mmHg 67%
    15:00 +10°C° 0 mm 3 m/s 750 mmHg 70%
    16:00 +10°C° 0 mm 3 m/s 750 mmHg 73%
    17:00 +9°C° 0 mm 3 m/s 750 mmHg 74%
    18:00 +8°C° 0 mm 4 m/s 750 mmHg 75%
    19:00 +8°C° 0 mm 4 m/s 750 mmHg 76%
    20:00 +7°C° 0 mm 4 m/s 750 mmHg 78%
    21:00 +7°C° 0 mm 4 m/s 750 mmHg 80%
    22:00 +8°C° 0 mm 3 m/s 750 mmHg 82%
    23:00 +7°C° 0 mm 4 m/s 750 mmHg 83%
    Arată mai mult